Simultaneous Nadir Overpasses (SNOs) Predictions

Prediction of SNOs between AQUA and METOP-B Satellite Orbit:

Table of predicted SNOs for the next 14.0 days since TLE Epoch: 1/10/2025
Index Date (AQUA) Time (AQUA) Lat,Lon (AQUA) SZA (AQUA ) Date (METOP-B) Time (METOP-B) Lat,Lon (METOP-B) SZA (METOP-B ) Distance(km) Time Diff (sec)
1 01/13/2025 03:01:03 -76.81, -46.92 81.79 01/13/2025 03:00:58 -76.79, -46.89 81.81 2.40 5
2 01/13/2025 03:50:24 76.84, 120.63 98.24 01/13/2025 03:51:37 76.84, 120.62 98.23 0.84 73
3 01/15/2025 15:50:49 -76.79, 120.76 82.26 01/15/2025 15:50:07 -76.80, 120.82 82.26 1.43 42
4 01/15/2025 16:40:10 76.83, -71.71 97.77 01/15/2025 16:40:46 76.84, -71.69 97.78 1.15 36
5 01/18/2025 04:40:31 -76.71, -71.29 82.85 01/18/2025 04:39:19 -76.61, -72.19 82.92 25.06 72
6 01/18/2025 05:29:54 76.84, 95.88 97.29 01/18/2025 05:29:54 76.83, 95.97 97.28 2.59 0
7 01/18/2025 06:19:20 -77.19, -97.79 82.35 01/18/2025 06:20:27 -77.23, -95.09 82.35 66.63 67
8 01/20/2025 18:19:37 76.83, -96.45 96.74 01/20/2025 18:19:03 76.82, -96.41 96.73 1.83 34
9 01/20/2025 19:08:56 -76.85, 71.13 83.25 01/20/2025 19:09:44 -76.87, 71.11 83.24 1.47 48
10 01/23/2025 07:09:18 76.79, 71.32 96.12 01/23/2025 07:08:12 76.79, 71.18 96.12 3.59 66
11 01/23/2025 07:58:38 -76.86,-121.26 83.82 01/23/2025 07:58:53 -76.84,-121.29 83.84 2.44 15



Historial Predications of SNOs between AQUA and METOP-B
